FW1436 Weather Reports


time (UTC)temp
C
wind
direction
speed
KPH
gust
KPH
rain 1hr
cm
rain 24hr
cm
rain mn
cm
humidity
%
barometer
mb
20260504081529 12 257 0.0 3.2 0.00 0.00 0.00 78 1009.9
20260504050016 8 271 0.0 0.0 0.00 0.00 0.00 88 1008.9
20260504044512 8 271 0.0 0.0 0.00 0.00 0.00 87 1008.8
20260504043010 8 271 0.0 0.0 0.00 0.00 0.00 86 1008.9
20260504041509 9 271 0.0 1.6 0.00 0.00 0.00 85 1008.8
20260504040022 9 269 0.0 0.0 0.00 0.00 0.00 85 1008.9
20260504034507 9 269 0.0 0.0 0.00 0.00 0.00 85 1008.9
20260504033006 9 269 0.0 0.0 0.00 0.00 0.00 85 1008.9
20260504031505 9 269 0.0 0.0 0.00 0.00 0.00 84 1009.0
20260504030003 10 270 0.0 3.2 0.00 0.00 0.00 84 1008.9
20260504024502 10 272 0.0 1.6 0.00 0.00 0.00 84 1009.0
20260504023104 10 287 0.0 3.2 0.00 0.00 0.00 83 1009.0
20260504021558 10 281 0.0 0.0 0.00 0.00 0.00 82 1009.1
20260504020101 10 278 0.0 1.6 0.00 0.00 0.00 81 1009.0
20260504014604 10 276 0.0 1.6 0.00 0.00 0.00 80 1009.0
20260504013058 11 277 0.0 1.6 0.00 0.00 0.00 79 1009.1
20260504011550 11 274 0.0 1.6 0.00 0.00 0.00 79 1009.1
20260504010053 11 288 0.0 3.2 0.00 0.00 0.00 78 1009.2
20260504004551 11 275 0.0 3.2 0.00 0.00 0.00 77 1009.2
20260504003054 12 274 1.6 4.8 0.00 0.00 0.00 76 1009.4
20260504001555 12 307 0.0 11.3 0.00 0.00 0.00 75 1009.5
20260504000040 12 293 1.6 9.7 0.00 0.00 0.00 74 1009.5
20260503234538 12 266 0.0 8.0 0.00 0.00 0.00 73 1009.6
20260503233038 13 264 0.0 1.6 0.00 0.00 0.00 72 1009.5
20260503231533 13 261 0.0 4.8 0.00 0.00 0.00 71 1009.6
20260503230033 13 299 0.0 6.4 0.00 0.00 0.00 70 1009.6
20260503224529 13 257 0.0 4.8 0.00 0.00 0.00 68 1009.6
20260503223028 14 244 1.6 9.7 0.00 0.00 0.00 68 1009.6
20260503221527 14 262 0.0 6.4 0.00 0.00 0.00 68 1009.6
20260503220022 14 274 3.2 11.3 0.00 0.00 0.00 68 1009.6
20260503214520 14 240 0.0 4.8 0.00 0.00 0.00 68 1009.5
20260503213021 15 273 1.6 8.0 0.00 0.00 0.00 67 1009.4
20260503211520 15 217 0.0 6.4 0.00 0.00 0.00 67 1009.3
20260503210020 15 298 1.6 8.0 0.00 0.00 0.00 67 1009.3
20260503204526 15 248 0.0 4.8 0.00 0.00 0.00 67 1009.2
20260503203018 15 269 0.0 4.8 0.00 0.00 0.00 67 1009.0
20260503201617 15 269 0.0 8.0 0.00 0.00 0.00 67 1008.8
20260503200057 15 250 0.0 8.0 0.00 0.00 0.00 66 1008.6
20260503194517 15 318 3.2 9.7 0.00 0.00 0.00 66 1008.5
20260503193034 15 304 3.2 9.7 0.00 0.00 0.00 66 1008.1
20260503191514 16 262 3.2 12.9 0.00 0.00 0.00 66 1008.1
20260503190014 16 233 3.2 11.3 0.00 0.00 0.00 65 1008.0
20260503184520 16 294 4.8 14.5 0.00 0.00 0.00 64 1008.0
20260503183012 16 272 4.8 14.5 0.00 0.00 0.00 63 1007.9
20260503181512 17 71 3.2 8.0 0.00 0.00 0.00 63 1007.9
20260503180017 17 266 6.4 12.9 0.00 0.00 0.00 63 1007.8
20260503174508 17 286 6.4 17.7 0.00 0.00 0.00 62 1007.9
20260503173019 17 312 1.6 17.7 0.00 0.00 0.00 61 1008.1
20260503171519 18 274 8.0 19.3 0.00 0.00 0.00 59 1008.2
20260503140200 18 261 11.3 22.5 0.00 0.00 0.00 56 1008.9